| time (UTC) | temp F | wind direction | speed MPH | gust MPH | rain 1hr in | rain 24hr in | rain mn in | humidity % | barometer mb |
| 20260507120213 | 61 | 258 | 10.0 | 0.0 | 0.00 | 0.00 | 0.00 | 83 | 1017.9 |
| 20260507115712 | 61 | 307 | 7.0 | 0.0 | 0.00 | 0.00 | 0.00 | 83 | 1017.9 |
| 20260507115212 | 61 | 312 | 10.0 | 0.0 | 0.00 | 0.00 | 0.00 | 83 | 1017.6 |
| 20260507114714 | 61 | 326 | 7.0 | 0.0 | 0.00 | 0.00 | 0.00 | 83 | 1017.6 |
| 20260507114214 | 61 | 303 | 10.0 | 0.0 | 0.00 | 0.00 | 0.00 | 83 | 1017.9 |
| 20260507113712 | 61 | 296 | 7.0 | 0.0 | 0.00 | 0.00 | 0.00 | 83 | 1017.6 |
| 20260507113211 | 61 | 257 | 8.0 | 0.0 | 0.00 | 0.00 | 0.00 | 83 | 1017.6 |
| 20260507112712 | 62 | 16 | 8.0 | 0.0 | 0.00 | 0.00 | 0.00 | 83 | 1017.6 |
| 20260507112214 | 62 | 246 | 8.0 | 0.0 | 0.00 | 0.00 | 0.00 | 83 | 1017.3 |
| 20260507111712 | 62 | 266 | 8.0 | 0.0 | 0.00 | 0.00 | 0.00 | 83 | 1017.3 |
| 20260507111210 | 62 | 324 | 8.0 | 0.0 | 0.00 | 0.00 | 0.00 | 83 | 1017.3 |
| 20260507110713 | 62 | 302 | 7.0 | 0.0 | 0.00 | 0.00 | 0.00 | 83 | 1017.3 |
| 20260507110211 | 62 | 243 | 8.0 | 0.0 | 0.00 | 0.00 | 0.00 | 83 | 1017.3 |
| 20260507105716 | 62 | 334 | 6.0 | 0.0 | 0.00 | 0.00 | 0.00 | 83 | 1016.9 |
| 20260507105213 | 62 | 269 | 9.0 | 0.0 | 0.00 | 0.00 | 0.00 | 83 | 1017.3 |
| 20260507104712 | 62 | 281 | 9.0 | 0.0 | 0.00 | 0.00 | 0.00 | 82 | 1016.9 |
| 20260507104211 | 62 | 315 | 7.0 | 0.0 | 0.00 | 0.00 | 0.00 | 83 | 1017.3 |
| 20260507103713 | 62 | 284 | 9.0 | 0.0 | 0.00 | 0.00 | 0.00 | 83 | 1017.3 |
| 20260507103213 | 62 | 246 | 6.0 | 0.0 | 0.00 | 0.00 | 0.00 | 83 | 1017.3 |
| 20260507102713 | 62 | 211 | 5.0 | 0.0 | 0.00 | 0.00 | 0.00 | 83 | 1017.3 |
| 20260507102312 | 62 | 271 | 7.0 | 0.0 | 0.00 | 0.00 | 0.00 | 83 | 1017.3 |
| 20260507101212 | 62 | 273 | 7.0 | 0.0 | 0.00 | 0.00 | 0.00 | 82 | 1016.9 |
| 20260507100711 | 62 | 327 | 7.0 | 0.0 | 0.00 | 0.00 | 0.00 | 82 | 1016.9 |
| 20260507100211 | 62 | 272 | 6.0 | 0.0 | 0.00 | 0.00 | 0.00 | 83 | 1017.3 |
| 20260507095711 | 62 | 282 | 6.0 | 0.0 | 0.00 | 0.00 | 0.00 | 83 | 1017.3 |
| 20260507095213 | 62 | 274 | 7.0 | 0.0 | 0.00 | 0.00 | 0.00 | 83 | 1016.9 |
| 20260507094710 | 62 | 297 | 6.0 | 0.0 | 0.00 | 0.00 | 0.00 | 82 | 1016.9 |
| 20260507094210 | 62 | 262 | 6.0 | 0.0 | 0.00 | 0.00 | 0.00 | 82 | 1016.9 |
| 20260507093712 | 62 | 252 | 7.0 | 0.0 | 0.00 | 0.00 | 0.00 | 83 | 1017.3 |
| 20260507093211 | 62 | 271 | 7.0 | 0.0 | 0.00 | 0.00 | 0.00 | 83 | 1016.9 |
| 20260507092710 | 62 | 276 | 5.0 | 0.0 | 0.00 | 0.00 | 0.00 | 83 | 1016.9 |
| 20260507092214 | 62 | 11 | 7.0 | 0.0 | 0.00 | 0.00 | 0.00 | 83 | 1016.9 |
| 20260507091712 | 62 | 312 | 5.0 | 0.0 | 0.00 | 0.00 | 0.00 | 83 | 1016.9 |
| 20260507091212 | 62 | 185 | 7.0 | 0.0 | 0.00 | 0.00 | 0.00 | 83 | 1016.9 |
| 20260507090712 | 62 | 251 | 8.0 | 0.0 | 0.00 | 0.00 | 0.00 | 83 | 1016.9 |
| 20260507090213 | 62 | 293 | 6.0 | 0.0 | 0.00 | 0.00 | 0.00 | 83 | 1016.9 |
| 20260507085714 | 62 | 238 | 5.0 | 0.0 | 0.00 | 0.00 | 0.00 | 83 | 1016.9 |
| 20260507085211 | 62 | 262 | 6.0 | 0.0 | 0.00 | 0.00 | 0.00 | 83 | 1016.9 |
| 20260507084714 | 62 | 292 | 8.0 | 0.0 | 0.00 | 0.00 | 0.00 | 83 | 1017.3 |
| 20260507084212 | 62 | 265 | 6.0 | 0.0 | 0.00 | 0.00 | 0.00 | 83 | 1017.3 |
| 20260507083711 | 62 | 277 | 5.0 | 0.0 | 0.00 | 0.00 | 0.00 | 83 | 1016.9 |
| 20260507083213 | 62 | 296 | 6.0 | 0.0 | 0.00 | 0.00 | 0.00 | 83 | 1016.9 |
| 20260507082712 | 62 | 329 | 7.0 | 0.0 | 0.00 | 0.00 | 0.00 | 83 | 1016.9 |
| 20260507082213 | 62 | 261 | 7.0 | 0.0 | 0.00 | 0.00 | 0.00 | 83 | 1017.3 |
| 20260507081711 | 63 | 322 | 6.0 | 0.0 | 0.00 | 0.00 | 0.00 | 83 | 1017.3 |
| 20260507081212 | 62 | 234 | 5.0 | 0.0 | 0.00 | 0.00 | 0.00 | 83 | 1017.3 |
| 20260507080712 | 62 | 249 | 5.0 | 0.0 | 0.00 | 0.00 | 0.00 | 83 | 1017.3 |
| 20260507080213 | 63 | 257 | 5.0 | 0.0 | 0.00 | 0.00 | 0.00 | 83 | 1016.9 |
| 20260507075712 | 62 | 290 | 6.0 | 0.0 | 0.00 | 0.00 | 0.00 | 83 | 1016.9 |
| 20260507075212 | 62 | 254 | 6.0 | 0.0 | 0.00 | 0.00 | 0.00 | 83 | 1016.9 |
| 20260507074714 | 63 | 243 | 4.0 | 0.0 | 0.00 | 0.00 | 0.00 | 83 | 1017.3 |
| 20260507074212 | 63 | 244 | 4.0 | 0.0 | 0.00 | 0.00 | 0.00 | 83 | 1017.3 |
| 20260507073713 | 63 | 287 | 4.0 | 0.0 | 0.00 | 0.00 | 0.00 | 83 | 1017.3 |
| 20260507073211 | 63 | 288 | 3.0 | 0.0 | 0.00 | 0.00 | 0.00 | 83 | 1017.3 |
| 20260507072712 | 63 | 288 | 4.0 | 0.0 | 0.00 | 0.00 | 0.00 | 83 | 1017.3 |
| 20260507072212 | 63 | 258 | 5.0 | 0.0 | 0.00 | 0.00 | 0.00 | 83 | 1017.3 |
| 20260507071711 | 63 | 251 | 6.0 | 0.0 | 0.00 | 0.00 | 0.00 | 83 | 1017.3 |
| 20260507071213 | 63 | 234 | 4.0 | 0.0 | 0.00 | 0.00 | 0.00 | 83 | 1017.3 |
| 20260507070714 | 63 | 287 | 4.0 | 0.0 | 0.00 | 0.00 | 0.00 | 83 | 1017.3 |
| 20260507070212 | 63 | 281 | 5.0 | 0.0 | 0.00 | 0.00 | 0.00 | 83 | 1017.3 |
| 20260507065712 | 63 | 207 | 5.0 | 0.0 | 0.00 | 0.00 | 0.00 | 83 | 1017.3 |
| 20260507065214 | 63 | 292 | 5.0 | 0.0 | 0.00 | 0.00 | 0.00 | 83 | 1016.9 |
| 20260507064713 | 63 | 212 | 4.0 | 0.0 | 0.00 | 0.00 | 0.00 | 83 | 1017.3 |
| 20260507064211 | 63 | 263 | 4.0 | 0.0 | 0.00 | 0.00 | 0.00 | 83 | 1017.3 |
| 20260507063713 | 63 | 249 | 6.0 | 0.0 | 0.00 | 0.00 | 0.00 | 83 | 1017.3 |
| 20260507063209 | 63 | 108 | 3.0 | 0.0 | 0.00 | 0.00 | 0.00 | 83 | 1017.3 |
| 20260507062710 | 63 | 243 | 4.0 | 0.0 | 0.00 | 0.00 | 0.00 | 83 | 1017.3 |
| 20260507062210 | 63 | 247 | 5.0 | 0.0 | 0.00 | 0.00 | 0.00 | 83 | 1017.3 |
| 20260507061711 | 63 | 247 | 6.0 | 0.0 | 0.00 | 0.00 | 0.00 | 83 | 1016.9 |
| 20260507061214 | 63 | 274 | 6.0 | 0.0 | 0.00 | 0.00 | 0.00 | 83 | 1016.9 |
| 20260507060711 | 63 | 268 | 5.0 | 0.0 | 0.00 | 0.00 | 0.00 | 83 | 1016.9 |
| 20260507060211 | 63 | 149 | 6.0 | 0.0 | 0.00 | 0.00 | 0.00 | 83 | 1016.6 |
| 20260507055711 | 63 | 291 | 6.0 | 0.0 | 0.00 | 0.00 | 0.00 | 83 | 1016.9 |
| 20260507055211 | 63 | 345 | 6.0 | 0.0 | 0.00 | 0.00 | 0.00 | 83 | 1016.6 |
| 20260507054710 | 63 | 267 | 6.0 | 0.0 | 0.00 | 0.00 | 0.00 | 83 | 1016.6 |
| 20260507054213 | 63 | 302 | 7.0 | 0.0 | 0.00 | 0.00 | 0.00 | 83 | 1016.6 |
| 20260507053712 | 63 | 248 | 10.0 | 0.0 | 0.00 | 0.00 | 0.00 | 83 | 1016.3 |
| 20260507053213 | 63 | 118 | 7.0 | 0.0 | 0.00 | 0.00 | 0.00 | 83 | 1016.3 |
| 20260507052711 | 63 | 319 | 6.0 | 0.0 | 0.00 | 0.00 | 0.00 | 83 | 1016.3 |
| 20260507052213 | 63 | 230 | 5.0 | 0.0 | 0.00 | 0.00 | 0.00 | 83 | 1016.3 |
| 20260507051713 | 63 | 279 | 7.0 | 0.0 | 0.00 | 0.00 | 0.00 | 83 | 1016.3 |
| 20260507051212 | 64 | 270 | 7.0 | 0.0 | 0.00 | 0.00 | 0.00 | 83 | 1016.3 |
| 20260507050711 | 64 | 215 | 4.0 | 0.0 | 0.00 | 0.00 | 0.00 | 84 | 1016.3 |
| 20260507050211 | 64 | 268 | 5.0 | 0.0 | 0.00 | 0.00 | 0.00 | 83 | 1016.6 |
| 20260507045714 | 64 | 207 | 4.0 | 0.0 | 0.00 | 0.00 | 0.00 | 84 | 1016.3 |
| 20260507045228 | 64 | 271 | 5.0 | 0.0 | 0.00 | 0.00 | 0.00 | 84 | 1016.3 |
| 20260507044728 | 64 | 251 | 4.0 | 0.0 | 0.00 | 0.00 | 0.00 | 84 | 1016.3 |
| 20260507044229 | 64 | 240 | 6.0 | 0.0 | 0.00 | 0.00 | 0.00 | 84 | 1016.6 |
| 20260507043730 | 64 | 285 | 7.0 | 0.0 | 0.00 | 0.00 | 0.00 | 83 | 1016.6 |
| 20260507043229 | 64 | 279 | 7.0 | 0.0 | 0.00 | 0.00 | 0.00 | 83 | 1016.6 |
| 20260507042728 | 64 | 285 | 6.0 | 0.0 | 0.00 | 0.00 | 0.00 | 83 | 1016.6 |
| 20260507042227 | 64 | 274 | 6.0 | 0.0 | 0.00 | 0.00 | 0.00 | 83 | 1016.3 |
| 20260507041729 | 64 | 278 | 7.0 | 0.0 | 0.00 | 0.00 | 0.00 | 83 | 1016.3 |
| 20260507041229 | 64 | 278 | 7.0 | 0.0 | 0.00 | 0.00 | 0.00 | 83 | 1016.3 |
| 20260507040731 | 64 | 281 | 6.0 | 0.0 | 0.00 | 0.00 | 0.00 | 83 | 1016.3 |
| 20260507040228 | 64 | 259 | 9.0 | 0.0 | 0.00 | 0.00 | 0.00 | 83 | 1015.9 |
| 20260507035729 | 64 | 276 | 6.0 | 0.0 | 0.00 | 0.00 | 0.00 | 83 | 1015.9 |
| 20260507035229 | 64 | 270 | 8.0 | 0.0 | 0.00 | 0.00 | 0.00 | 83 | 1015.9 |
| 20260507034728 | 64 | 280 | 7.0 | 0.0 | 0.00 | 0.00 | 0.00 | 83 | 1015.6 |
| 20260507034226 | 64 | 298 | 8.0 | 0.0 | 0.00 | 0.00 | 0.00 | 83 | 1015.9 |
| 20260507033727 | 64 | 339 | 7.0 | 0.0 | 0.00 | 0.00 | 0.00 | 83 | 1015.6 |
| 20260507033226 | 64 | 284 | 7.0 | 0.0 | 0.00 | 0.00 | 0.00 | 83 | 1015.6 |
| 20260507032727 | 64 | 275 | 7.0 | 0.0 | 0.00 | 0.00 | 0.00 | 83 | 1015.6 |
| 20260507032225 | 64 | 293 | 5.0 | 0.0 | 0.00 | 0.00 | 0.00 | 83 | 1015.6 |
| 20260507031727 | 64 | 289 | 8.0 | 0.0 | 0.00 | 0.00 | 0.00 | 82 | 1015.6 |
| 20260507031226 | 64 | 258 | 7.0 | 0.0 | 0.00 | 0.00 | 0.00 | 82 | 1015.6 |
| 20260507030728 | 64 | 303 | 7.0 | 0.0 | 0.00 | 0.00 | 0.00 | 82 | 1015.6 |
| 20260507030225 | 64 | 278 | 6.0 | 0.0 | 0.00 | 0.00 | 0.00 | 82 | 1015.6 |
| 20260507025726 | 64 | 309 | 8.0 | 0.0 | 0.00 | 0.00 | 0.00 | 82 | 1015.6 |
| 20260507025224 | 64 | 258 | 6.0 | 0.0 | 0.00 | 0.00 | 0.00 | 82 | 1015.6 |
| 20260507024725 | 64 | 326 | 10.0 | 0.0 | 0.00 | 0.00 | 0.00 | 82 | 1015.6 |
| 20260507024225 | 64 | 290 | 8.0 | 0.0 | 0.00 | 0.00 | 0.00 | 82 | 1015.6 |
| 20260507023728 | 64 | 312 | 6.0 | 0.0 | 0.00 | 0.00 | 0.00 | 82 | 1015.6 |
| 20260507023225 | 65 | 286 | 8.0 | 0.0 | 0.00 | 0.00 | 0.00 | 81 | 1015.6 |
| 20260507022724 | 65 | 323 | 7.0 | 0.0 | 0.00 | 0.00 | 0.00 | 82 | 1015.2 |
| 20260507022225 | 65 | 168 | 8.0 | 0.0 | 0.00 | 0.00 | 0.00 | 82 | 1015.6 |
| 20260507021726 | 65 | 290 | 8.0 | 0.0 | 0.00 | 0.00 | 0.00 | 82 | 1015.6 |
| 20260507021223 | 65 | 316 | 10.0 | 0.0 | 0.00 | 0.00 | 0.00 | 82 | 1015.2 |
| 20260507020724 | 65 | 326 | 8.0 | 0.0 | 0.00 | 0.00 | 0.00 | 81 | 1015.2 |
| 20260507020225 | 65 | 298 | 7.0 | 0.0 | 0.00 | 0.00 | 0.00 | 81 | 1014.9 |
| 20260507015724 | 65 | 309 | 7.0 | 0.0 | 0.00 | 0.00 | 0.00 | 81 | 1014.9 |
| 20260507015223 | 65 | 255 | 9.0 | 0.0 | 0.00 | 0.00 | 0.00 | 81 | 1014.6 |
| 20260507014723 | 65 | 245 | 8.0 | 0.0 | 0.00 | 0.00 | 0.00 | 81 | 1014.6 |
| 20260507014222 | 66 | 247 | 7.0 | 0.0 | 0.00 | 0.00 | 0.00 | 80 | 1014.6 |
| 20260507013722 | 66 | 286 | 6.0 | 0.0 | 0.00 | 0.00 | 0.00 | 80 | 1014.6 |
| 20260507013222 | 66 | 295 | 6.0 | 0.0 | 0.00 | 0.00 | 0.00 | 80 | 1014.6 |
| 20260507012721 | 66 | 220 | 6.0 | 0.0 | 0.00 | 0.00 | 0.00 | 80 | 1014.6 |
| 20260507012222 | 66 | 272 | 7.0 | 0.0 | 0.00 | 0.00 | 0.00 | 80 | 1014.6 |
| 20260507011722 | 66 | 246 | 7.0 | 0.0 | 0.00 | 0.00 | 0.00 | 80 | 1014.6 |
| 20260507011222 | 67 | 314 | 7.0 | 0.0 | 0.00 | 0.00 | 0.00 | 79 | 1014.6 |
| 20260507010722 | 67 | 252 | 7.0 | 0.0 | 0.00 | 0.00 | 0.00 | 79 | 1013.9 |
| 20260507010225 | 67 | 281 | 7.0 | 0.0 | 0.00 | 0.00 | 0.00 | 79 | 1013.9 |
| 20260507005724 | 67 | 261 | 7.0 | 0.0 | 0.00 | 0.00 | 0.00 | 78 | 1013.9 |
| 20260507005223 | 68 | 342 | 8.0 | 0.0 | 0.00 | 0.00 | 0.00 | 78 | 1013.9 |
| 20260507004722 | 68 | 290 | 8.0 | 0.0 | 0.00 | 0.00 | 0.00 | 78 | 1013.9 |
| 20260507004220 | 68 | 332 | 7.0 | 0.0 | 0.00 | 0.00 | 0.00 | 78 | 1013.9 |
| 20260507003720 | 68 | 256 | 7.0 | 0.0 | 0.00 | 0.00 | 0.00 | 77 | 1013.9 |
| 20260507003222 | 69 | 226 | 9.0 | 0.0 | 0.00 | 0.00 | 0.00 | 77 | 1013.9 |
| 20260507002721 | 69 | 252 | 7.0 | 0.0 | 0.00 | 0.00 | 0.00 | 75 | 1013.9 |
| 20260507002219 | 70 | 315 | 8.0 | 0.0 | 0.00 | 0.00 | 0.00 | 75 | 1013.9 |
| 20260507001719 | 70 | 267 | 7.0 | 0.0 | 0.00 | 0.00 | 0.00 | 75 | 1013.5 |
| 20260507001221 | 71 | 147 | 9.0 | 0.0 | 0.00 | 0.00 | 0.00 | 74 | 1013.5 |
| 20260507000719 | 71 | 280 | 7.0 | 0.0 | 0.00 | 0.00 | 0.00 | 74 | 1013.5 |
| 20260507000220 | 71 | 267 | 9.0 | 0.0 | 0.00 | 0.00 | 0.00 | 74 | 1013.5 |
| 20260506235719 | 71 | 286 | 8.0 | 0.0 | 0.00 | 0.00 | 0.00 | 74 | 1013.2 |
| 20260506235218 | 72 | 266 | 7.0 | 0.0 | 0.00 | 0.00 | 0.00 | 74 | 1013.5 |
| 20260506234717 | 72 | 215 | 7.0 | 0.0 | 0.00 | 0.00 | 0.00 | 74 | 1013.2 |
| 20260506234218 | 72 | 292 | 9.0 | 0.0 | 0.00 | 0.00 | 0.00 | 73 | 1013.2 |
| 20260506233721 | 72 | 289 | 8.0 | 0.0 | 0.00 | 0.00 | 0.00 | 73 | 1013.2 |
| 20260506233218 | 73 | 256 | 8.0 | 0.0 | 0.00 | 0.00 | 0.00 | 73 | 1012.9 |
| 20260506232719 | 73 | 287 | 9.0 | 0.0 | 0.00 | 0.00 | 0.00 | 72 | 1012.9 |
| 20260506232219 | 73 | 299 | 11.0 | 0.0 | 0.00 | 0.00 | 0.00 | 71 | 1012.9 |
| 20260506231717 | 75 | 236 | 10.0 | 0.0 | 0.00 | 0.00 | 0.00 | 70 | 1012.9 |
| 20260506231217 | 75 | 284 | 8.0 | 0.0 | 0.00 | 0.00 | 0.00 | 70 | 1012.9 |
| 20260506230720 | 76 | 285 | 10.0 | 0.0 | 0.00 | 0.00 | 0.00 | 69 | 1012.9 |
| 20260506230219 | 77 | 133 | 11.0 | 0.0 | 0.00 | 0.00 | 0.00 | 68 | 1012.5 |
| 20260506225717 | 77 | 208 | 6.0 | 0.0 | 0.00 | 0.00 | 0.00 | 69 | 1012.5 |
| 20260506225218 | 77 | 125 | 10.0 | 0.0 | 0.00 | 0.00 | 0.00 | 69 | 1012.5 |
| 20260506224718 | 78 | 269 | 8.0 | 0.0 | 0.00 | 0.00 | 0.00 | 69 | 1012.5 |
| 20260506224219 | 79 | 292 | 9.0 | 0.0 | 0.00 | 0.00 | 0.00 | 69 | 1012.5 |
| 20260506223717 | 78 | 251 | 8.0 | 0.0 | 0.00 | 0.00 | 0.00 | 69 | 1012.5 |
| 20260506223219 | 79 | 290 | 7.0 | 0.0 | 0.00 | 0.00 | 0.00 | 68 | 1012.5 |
| 20260506222715 | 80 | 183 | 7.0 | 0.0 | 0.00 | 0.00 | 0.00 | 69 | 1012.2 |
| 20260506222215 | 80 | 273 | 9.0 | 0.0 | 0.00 | 0.00 | 0.00 | 69 | 1012.2 |
| 20260506221717 | 80 | 312 | 6.0 | 0.0 | 0.00 | 0.00 | 0.00 | 70 | 1012.2 |
| 20260506221216 | 80 | 241 | 8.0 | 0.0 | 0.00 | 0.00 | 0.00 | 69 | 1012.2 |
| 20260506220716 | 80 | 288 | 8.0 | 0.0 | 0.00 | 0.00 | 0.00 | 69 | 1012.2 |
| 20260506220215 | 80 | 298 | 9.0 | 0.0 | 0.00 | 0.00 | 0.00 | 70 | 1012.2 |
| 20260506215715 | 80 | 245 | 8.0 | 0.0 | 0.00 | 0.00 | 0.00 | 69 | 1011.9 |
| 20260506215215 | 81 | 350 | 8.0 | 0.0 | 0.00 | 0.00 | 0.00 | 70 | 1012.2 |
| 20260506214715 | 80 | 133 | 11.0 | 0.0 | 0.00 | 0.00 | 0.00 | 71 | 1012.2 |
| 20260506214214 | 80 | 303 | 9.0 | 0.0 | 0.00 | 0.00 | 0.00 | 70 | 1012.2 |
| 20260506213713 | 81 | 328 | 8.0 | 0.0 | 0.00 | 0.00 | 0.00 | 72 | 1012.2 |
| 20260506213215 | 80 | 293 | 10.0 | 0.0 | 0.00 | 0.00 | 0.00 | 70 | 1012.2 |
| 20260506212715 | 80 | 232 | 6.0 | 0.0 | 0.00 | 0.00 | 0.00 | 72 | 1012.2 |
| 20260506212213 | 80 | 288 | 8.0 | 0.0 | 0.00 | 0.00 | 0.00 | 73 | 1012.2 |
| 20260506211717 | 80 | 258 | 8.0 | 0.0 | 0.00 | 0.00 | 0.00 | 72 | 1012.2 |
| 20260506211214 | 80 | 279 | 8.0 | 0.0 | 0.00 | 0.00 | 0.00 | 72 | 1012.2 |
| 20260506210713 | 80 | 285 | 9.0 | 0.0 | 0.00 | 0.00 | 0.00 | 70 | 1012.2 |
| 20260506210213 | 81 | 255 | 9.0 | 0.0 | 0.00 | 0.00 | 0.00 | 71 | 1012.2 |
| 20260506205713 | 83 | 227 | 10.0 | 0.0 | 0.00 | 0.00 | 0.00 | 68 | 1012.2 |
| 20260506205212 | 84 | 186 | 5.0 | 0.0 | 0.00 | 0.00 | 0.00 | 70 | 1011.9 |
| 20260506204712 | 84 | 245 | 4.0 | 0.0 | 0.00 | 0.00 | 0.00 | 68 | 1011.9 |
| 20260506204211 | 84 | 186 | 4.0 | 0.0 | 0.00 | 0.00 | 0.00 | 67 | 1011.9 |
| 20260506203712 | 84 | 83 | 3.0 | 0.0 | 0.00 | 0.00 | 0.00 | 67 | 1011.9 |
| 20260506203213 | 84 | 208 | 4.0 | 0.0 | 0.00 | 0.00 | 0.00 | 67 | 1011.9 |
| 20260506202712 | 84 | 237 | 3.0 | 0.0 | 0.00 | 0.00 | 0.00 | 68 | 1012.2 |
| 20260506202213 | 84 | 173 | 4.0 | 0.0 | 0.00 | 0.00 | 0.00 | 67 | 1012.2 |
| 20260506201711 | 85 | 168 | 5.0 | 0.0 | 0.00 | 0.00 | 0.00 | 68 | 1012.2 |
| 20260506201214 | 85 | 133 | 7.0 | 0.0 | 0.00 | 0.00 | 0.00 | 68 | 1012.2 |
| 20260506200713 | 85 | 125 | 4.0 | 0.0 | 0.00 | 0.00 | 0.00 | 68 | 1012.2 |
| 20260506200213 | 85 | 101 | 6.0 | 0.0 | 0.00 | 0.00 | 0.00 | 71 | 1012.2 |
| 20260506195710 | 85 | 127 | 4.0 | 0.0 | 0.00 | 0.00 | 0.00 | 69 | 1012.2 |
| 20260506195213 | 85 | 191 | 6.0 | 0.0 | 0.00 | 0.00 | 0.00 | 67 | 1012.5 |
| 20260506194714 | 86 | 106 | 5.0 | 0.0 | 0.00 | 0.00 | 0.00 | 67 | 1012.5 |
| 20260506194214 | 85 | 107 | 4.0 | 0.0 | 0.00 | 0.00 | 0.00 | 69 | 1012.5 |
| 20260506193710 | 85 | 237 | 7.0 | 0.0 | 0.00 | 0.00 | 0.00 | 70 | 1012.5 |
| 20260506193210 | 85 | 194 | 5.0 | 0.0 | 0.00 | 0.00 | 0.00 | 69 | 1012.2 |
| 20260506192713 | 85 | 269 | 6.0 | 0.0 | 0.00 | 0.00 | 0.00 | 70 | 1012.5 |
| 20260506192211 | 85 | 178 | 6.0 | 0.0 | 0.00 | 0.00 | 0.00 | 70 | 1012.5 |
| 20260506191713 | 84 | 93 | 5.0 | 0.0 | 0.00 | 0.00 | 0.00 | 70 | 1012.5 |
| 20260506191213 | 84 | 142 | 4.0 | 0.0 | 0.00 | 0.00 | 0.00 | 73 | 1012.5 |
| 20260506190715 | 83 | 285 | 3.0 | 0.0 | 0.00 | 0.00 | 0.00 | 72 | 1012.5 |
| 20260506190216 | 83 | 119 | 4.0 | 0.0 | 0.00 | 0.00 | 0.00 | 72 | 1012.9 |
| 20260506185715 | 83 | 81 | 5.0 | 0.0 | 0.00 | 0.00 | 0.00 | 73 | 1012.9 |
| 20260506185212 | 83 | 288 | 5.0 | 0.0 | 0.00 | 0.00 | 0.00 | 73 | 1012.9 |
| 20260506184712 | 83 | 283 | 6.0 | 0.0 | 0.00 | 0.00 | 0.00 | 74 | 1012.9 |
| 20260506184213 | 83 | 82 | 6.0 | 0.0 | 0.00 | 0.00 | 0.00 | 75 | 1012.9 |
| 20260506183710 | 82 | 88 | 4.0 | 0.0 | 0.00 | 0.00 | 0.00 | 75 | 1012.9 |
| 20260506183213 | 82 | 145 | 4.0 | 0.0 | 0.00 | 0.00 | 0.00 | 76 | 1013.2 |
| 20260506182711 | 82 | 272 | 3.0 | 0.0 | 0.00 | 0.00 | 0.00 | 75 | 1013.2 |
| 20260506182212 | 82 | 146 | 6.0 | 0.0 | 0.00 | 0.00 | 0.00 | 76 | 1013.2 |
| 20260506181714 | 82 | 132 | 5.0 | 0.0 | 0.00 | 0.00 | 0.00 | 75 | 1013.2 |
| 20260506181214 | 82 | 349 | 6.0 | 0.0 | 0.00 | 0.00 | 0.00 | 77 | 1013.2 |
| 20260506180711 | 81 | 108 | 6.0 | 0.0 | 0.00 | 0.00 | 0.00 | 80 | 1013.2 |
| 20260506180213 | 80 | 61 | 5.0 | 0.0 | 0.00 | 0.00 | 0.00 | 81 | 1013.2 |
| 20260506175710 | 80 | 145 | 7.0 | 0.0 | 0.00 | 0.00 | 0.00 | 83 | 1013.2 |
| 20260506175211 | 79 | 161 | 5.0 | 0.0 | 0.00 | 0.00 | 0.00 | 82 | 1013.5 |
| 20260506174712 | 79 | 337 | 6.0 | 0.0 | 0.00 | 0.00 | 0.00 | 82 | 1013.5 |
| 20260506174214 | 79 | 143 | 4.0 | 0.0 | 0.00 | 0.00 | 0.00 | 83 | 1013.5 |
| 20260506173713 | 79 | 211 | 6.0 | 0.0 | 0.00 | 0.00 | 0.00 | 83 | 1013.5 |
| 20260506173213 | 79 | 168 | 5.0 | 0.0 | 0.00 | 0.00 | 0.00 | 84 | 1013.5 |
| 20260506172724 | 78 | 256 | 4.0 | 0.0 | 0.00 | 0.00 | 0.00 | 86 | 1013.5 |
| 20260506172222 | 78 | 263 | 6.0 | 0.0 | 0.00 | 0.00 | 0.00 | 86 | 1013.5 |
| 20260506171722 | 78 | 143 | 3.0 | 0.0 | 0.00 | 0.00 | 0.00 | 87 | 1013.5 |
| 20260506171225 | 78 | 221 | 4.0 | 0.0 | 0.00 | 0.00 | 0.00 | 88 | 1013.5 |
| 20260506170722 | 77 | 238 | 2.0 | 0.0 | 0.00 | 0.00 | 0.00 | 88 | 1013.5 |
| 20260506170222 | 77 | 155 | 4.0 | 0.0 | 0.00 | 0.00 | 0.00 | 88 | 1013.5 |
| 20260506165722 | 77 | 144 | 4.0 | 0.0 | 0.00 | 0.00 | 0.00 | 89 | 1013.5 |
| 20260506165223 | 77 | 204 | 2.0 | 0.0 | 0.00 | 0.00 | 0.00 | 90 | 1013.9 |
| 20260506164722 | 77 | 158 | 4.0 | 0.0 | 0.00 | 0.00 | 0.00 | 89 | 1013.5 |
| 20260506164223 | 77 | 145 | 3.0 | 0.0 | 0.00 | 0.00 | 0.00 | 90 | 1013.5 |
| 20260506163721 | 76 | 118 | 4.0 | 0.0 | 0.00 | 0.00 | 0.00 | 90 | 1013.5 |
| 20260506163221 | 76 | 163 | 3.0 | 0.0 | 0.00 | 0.00 | 0.00 | 91 | 1013.5 |
| 20260506162719 | 76 | 213 | 2.0 | 0.0 | 0.00 | 0.00 | 0.00 | 92 | 1013.5 |
| 20260506162220 | 76 | 174 | 3.0 | 0.0 | 0.00 | 0.00 | 0.00 | 92 | 1013.5 |
| 20260506161721 | 76 | 235 | 0.0 | 0.0 | 0.00 | 0.00 | 0.00 | 93 | 1013.5 |
| 20260506161220 | 75 | 190 | 0.0 | 0.0 | 0.00 | 0.00 | 0.00 | 93 | 1013.5 |
| 20260506160719 | 75 | 195 | 1.0 | 0.0 | 0.00 | 0.00 | 0.00 | 93 | 1013.5 |
| 20260506160220 | 75 | 152 | 0.0 | 0.0 | 0.00 | 0.00 | 0.00 | 94 | 1013.2 |
| 20260506155719 | 75 | 196 | 0.0 | 0.0 | 0.00 | 0.00 | 0.00 | 94 | 1013.2 |
| 20260506155220 | 75 | 123 | 2.0 | 0.0 | 0.00 | 0.00 | 0.00 | 94 | 1013.2 |
| 20260506154721 | 75 | 136 | 2.0 | 0.0 | 0.00 | 0.00 | 0.00 | 94 | 1013.2 |
| 20260506154219 | 75 | 158 | 2.0 | 0.0 | 0.00 | 0.00 | 0.00 | 94 | 1013.2 |
| 20260506153719 | 75 | 280 | 0.0 | 0.0 | 0.00 | 0.00 | 0.00 | 94 | 1013.2 |
| 20260506153219 | 74 | 220 | 0.0 | 0.0 | 0.00 | 0.00 | 0.00 | 94 | 1013.2 |
| 20260506152718 | 75 | 227 | 0.0 | 0.0 | 0.00 | 0.00 | 0.00 | 94 | 1012.9 |
| 20260506152218 | 75 | 215 | 0.0 | 0.0 | 0.00 | 0.00 | 0.00 | 94 | 1012.9 |
| 20260506151720 | 75 | 212 | 0.0 | 0.0 | 0.00 | 0.00 | 0.00 | 94 | 1012.9 |
| 20260506151218 | 75 | 278 | 0.0 | 0.0 | 0.00 | 0.00 | 0.00 | 94 | 1012.9 |
| 20260506150718 | 74 | 221 | 0.0 | 0.0 | 0.00 | 0.00 | 0.00 | 94 | 1012.5 |
| 20260506150218 | 74 | 168 | 0.0 | 0.0 | 0.00 | 0.00 | 0.00 | 93 | 1012.5 |
| 20260506145717 | 75 | 212 | 0.0 | 0.0 | 0.00 | 0.00 | 0.00 | 93 | 1012.5 |
| 20260506145218 | 75 | 233 | 0.0 | 0.0 | 0.00 | 0.00 | 0.00 | 93 | 1012.5 |
| 20260506144717 | 74 | 207 | 0.0 | 0.0 | 0.00 | 0.00 | 0.00 | 93 | 1012.9 |
| 20260506144216 | 74 | 202 | 0.0 | 0.0 | 0.00 | 0.00 | 0.00 | 93 | 1012.9 |
| 20260506143719 | 74 | 226 | 2.0 | 0.0 | 0.00 | 0.00 | 0.00 | 93 | 1012.9 |
| 20260506143217 | 74 | 286 | 2.0 | 0.0 | 0.00 | 0.00 | 0.00 | 93 | 1012.5 |
| 20260506142718 | 74 | 242 | 0.0 | 0.0 | 0.00 | 0.00 | 0.00 | 93 | 1012.5 |
| 20260506142216 | 74 | 187 | 0.0 | 0.0 | 0.00 | 0.00 | 0.00 | 94 | 1012.2 |
| 20260506141717 | 74 | 213 | 0.0 | 0.0 | 0.00 | 0.00 | 0.00 | 94 | 1012.2 |
| 20260506141215 | 74 | 186 | 0.0 | 0.0 | 0.00 | 0.00 | 0.00 | 94 | 1012.2 |
| 20260506140716 | 74 | 130 | 2.0 | 0.0 | 0.00 | 0.00 | 0.00 | 94 | 1012.2 |
| 20260506140216 | 74 | 176 | 0.0 | 0.0 | 0.00 | 0.00 | 0.00 | 94 | 1011.9 |
| 20260506135716 | 74 | 197 | 0.0 | 0.0 | 0.00 | 0.00 | 0.00 | 94 | 1011.9 |
| 20260506135215 | 74 | 183 | 3.0 | 0.0 | 0.00 | 0.00 | 0.00 | 94 | 1011.9 |
| 20260506134716 | 74 | 156 | 3.0 | 0.0 | 0.00 | 0.00 | 0.00 | 94 | 1011.5 |
| 20260506134216 | 74 | 149 | 4.0 | 0.0 | 0.00 | 0.00 | 0.00 | 94 | 1011.5 |
| 20260506133716 | 74 | 195 | 4.0 | 0.0 | 0.00 | 0.00 | 0.00 | 94 | 1011.5 |
| 20260506133216 | 74 | 183 | 0.0 | 0.0 | 0.00 | 0.00 | 0.00 | 94 | 1011.5 |
| 20260506132714 | 74 | 180 | 0.0 | 0.0 | 0.00 | 0.00 | 0.00 | 95 | 1011.2 |
| 20260506132213 | 74 | 204 | 4.0 | 0.0 | 0.00 | 0.00 | 0.00 | 94 | 1011.2 |
| 20260506131714 | 74 | 139 | 3.0 | 0.0 | 0.00 | 0.00 | 0.00 | 95 | 1011.2 |
| 20260506131216 | 74 | 168 | 3.0 | 0.0 | 0.00 | 0.00 | 0.00 | 95 | 1011.2 |
| 20260506130713 | 74 | 81 | 3.0 | 0.0 | 0.00 | 0.00 | 0.00 | 94 | 1011.2 |
| 20260506130216 | 74 | 121 | 2.0 | 0.0 | 0.00 | 0.00 | 0.00 | 95 | 1010.8 |
| 20260506125713 | 74 | 123 | 2.0 | 0.0 | 0.00 | 0.00 | 0.00 | 94 | 1010.8 |
| 20260506125212 | 74 | 142 | 1.0 | 0.0 | 0.00 | 0.00 | 0.00 | 94 | 1010.8 |
| 20260506124711 | 74 | 159 | 2.0 | 0.0 | 0.00 | 0.00 | 0.00 | 94 | 1010.8 |
| 20260506124211 | 74 | 173 | 3.0 | 0.0 | 0.00 | 0.00 | 0.00 | 94 | 1010.8 |
| 20260506123712 | 74 | 201 | 3.0 | 0.0 | 0.00 | 0.00 | 0.00 | 94 | 1010.8 |
| 20260506123212 | 74 | 159 | 0.0 | 0.0 | 0.00 | 0.00 | 0.00 | 94 | 1010.8 |
| 20260506122717 | 73 | 128 | 0.0 | 0.0 | 0.00 | 0.00 | 0.00 | 94 | 1010.8 |
| 20260506122211 | 74 | 181 | 0.0 | 0.0 | 0.00 | 0.00 | 0.00 | 94 | 1011.2 |
| 20260506121717 | 74 | 172 | 3.0 | 0.0 | 0.00 | 0.00 | 0.00 | 94 | 1011.2 |
| 20260506121214 | 74 | 147 | 3.0 | 0.0 | 0.00 | 0.00 | 0.00 | 94 | 1011.2 |
| 20260506120711 | 74 | 200 | 0.0 | 0.0 | 0.00 | 0.00 | 0.00 | 94 | 1011.2 |